Location: Le Domaine
(47.0333°N, 76.5361°W)
Time: 15:43:51
(UTC-05:00)

S-56A Canister/Altair - Pass Details

Date: 24 November 2019
Orbit: 633 x 2499 km, 38.9° (Epoch: 07 December)

Event Time Altitude Azimuth Distance (km) Brightness Sun altitude
Rises 19:43:03 0° 273° (W) 4,771 12.7 -33.6°
Reaches altitude 10° 19:47:04 10° 264° (W) 3,450 11.6 -34.2°
Maximum altitude 19:53:59 30° 207° (SSW) 1,766 9.4 -35.4°
Enters shadow 19:54:00 30° 207° (SSW) 1,764 9.4 -35.4°
Drops below altitude 10° 19:59:00 10° 147° (SSE) 2,461 - -36.3°
Sets 20:01:24 0° 136° (SE) 3,228 - -36.7°
